Saginaw, MI

5:52 PM EDT on March 23, 2017 (GMT -0400)
MBS International

Weather History for KMBS - January, 2013

Change the Weather History Date:

Saturday, January 19, 2013

  Actual Average Record
Temperature  
Mean Temperature 38 °F 22 °F  
Max Temperature 42 °F 29 °F 42 °F (2013)
Min Temperature 33 °F 15 °F -2 °F (1997)
Degree Days  
Heating Degree Days 28    
Month to date heating degree days  
Since 1 July heating degree days  
Cooling Degree Days 0    
Month to date cooling degree days  
Year to date cooling degree days  
Moisture  
Dew Point 29 °F    
Average Humidity 70    
Maximum Humidity 87    
Minimum Humidity 59    
Precipitation  
Precipitation 0.03 in 0.05 in 0.04 in (2000)
Month to date precipitation 1.14  
Year to date precipitation 1.14  
Snow  
Snow 0.00 in - - ()
Month to date snowfall  
Since 1 July snowfall  
Snow Depth -    
Sea Level Pressure  
Sea Level Pressure 29.71 in    
Wind  
Wind Speed 15 mph (SW)    
Max Wind Speed 26 mph    
Max Gust Speed 41 mph    
Visibility 9 miles    
Events Rain , Snow    
T = Trace of Precipitation, MM = Missing Value Source: NWS Daily Summary

Daily Weather History Graph

Daily Weather History Graph

Search for Another Location

Airport or City:

Trip Planner

Search our weather history database for the weather conditions in past years. The results will help you decide how hot, cold, wet, or windy it might be!

Date:

Astronomy

Jan. 19, 2013 Rise Set
Actual Time 8:03 AM EST 5:30 PM EST
Civil Twilight 7:32 AM EST 6:02 PM EST
Nautical Twilight 6:57 AM EST 6:37 PM EST
Astronomical Twilight 6:23 AM EST 7:11 PM EST
Moon 11:58 AM EST (1/19) 1:34 AM EST (1/19)
Length of Visible Light 10h 29m
Length of Day
9h 27m
First Quarter, 57% of the Moon is Illuminated
Jan 19
First Quarter
Jan 26
Full
Feb 3
Last Quarter
Feb 10
New
Feb 17
First Quarter

Hourly Weather History & Observations

Time (EST) Temp. Windchill Dew Point Humidity Pressure Visibility Wind Dir Wind Speed Gust Speed Precip Events Conditions
12:53 AM 35.1 °F 25.9 °F 21.9 °F 59% 29.86 in 10.0 mi SSW 13.8 mph - N/A   Clear
1:53 AM 35.1 °F 25.5 °F 24.1 °F 64% 29.84 in 10.0 mi SW 15.0 mph - N/A   Clear
2:53 AM 36.0 °F 26.7 °F 25.0 °F 64% 29.85 in 10.0 mi SSW 15.0 mph 21.9 mph N/A   Clear
3:53 AM 36.0 °F 26.0 °F 25.0 °F 64% 29.85 in 10.0 mi SW 17.3 mph 24.2 mph N/A   Clear
4:53 AM 37.0 °F 28.1 °F 27.0 °F 67% 29.83 in 10.0 mi SW 15.0 mph 21.9 mph N/A   Clear
5:53 AM 37.0 °F 27.0 °F 27.0 °F 67% 29.84 in 10.0 mi SW 18.4 mph - N/A   Clear
6:53 AM 37.0 °F 27.7 °F 28.0 °F 70% 29.85 in 10.0 mi SW 16.1 mph - N/A   Clear
7:53 AM 37.0 °F 27.7 °F 28.0 °F 70% 29.86 in 10.0 mi SW 16.1 mph - N/A   Clear
8:53 AM 37.0 °F 28.1 °F 28.9 °F 73% 29.87 in 10.0 mi SW 15.0 mph - N/A   Mostly Cloudy
9:53 AM 37.0 °F 29.3 °F 28.9 °F 73% 29.88 in 10.0 mi SW 11.5 mph - N/A   Overcast
10:53 AM 39.0 °F 31.4 °F 28.9 °F 67% 29.87 in 10.0 mi SSW 12.7 mph - N/A   Overcast
11:53 AM 39.0 °F 31.8 °F 28.9 °F 67% 29.84 in 10.0 mi SSW 11.5 mph - N/A   Overcast
12:53 PM 39.0 °F 31.8 °F 28.9 °F 67% 29.78 in 10.0 mi SSW 11.5 mph - N/A   Overcast
1:53 PM 39.9 °F 32.5 °F 28.9 °F 65% 29.73 in 10.0 mi SSW 12.7 mph - N/A   Overcast
2:53 PM 41.0 °F 33.9 °F 30.0 °F 65% 29.70 in 10.0 mi SSW 12.7 mph - N/A   Mostly Cloudy
3:53 PM 42.1 °F 33.9 °F 30.9 °F 65% 29.68 in 10.0 mi SSW 17.3 mph 25.3 mph N/A   Overcast
4:53 PM 42.1 °F 35.2 °F 30.9 °F 65% 29.65 in 10.0 mi SSW 12.7 mph - N/A   Overcast
5:53 PM 39.9 °F 32.9 °F 30.9 °F 70% 29.64 in 10.0 mi SW 11.5 mph - N/A   Mostly Cloudy
6:53 PM 39.9 °F 32.1 °F 30.9 °F 70% 29.63 in 10.0 mi SW 13.8 mph - N/A   Mostly Cloudy
7:53 PM 41.0 °F 32.2 °F 30.9 °F 67% 29.59 in 10.0 mi SW 18.4 mph 24.2 mph N/A   Clear
8:53 PM 41.0 °F 32.5 °F 32.0 °F 70% 29.56 in 10.0 mi SW 17.3 mph - 0.00 in   Overcast
9:53 PM 41.0 °F 32.5 °F 34.0 °F 76% 29.53 in 10.0 mi SW 17.3 mph - 0.00 in   Overcast
10:53 PM 41.0 °F 31.6 °F 34.0 °F 76% 29.49 in 10.0 mi SW 20.7 mph 28.8 mph 0.00 in   Overcast
11:28 PM 37.4 °F - 32.0 °F 81% 29.51 in 1.8 mi North - - 0.01 in Rain Light Rain
11:31 PM 33.8 °F 20.8 °F 30.2 °F 87% 29.51 in 0.8 mi West 26.5 mph 41.4 mph 0.02 in Snow Light Snow
11:45 PM 33.8 °F 21.0 °F 30.2 °F 87% 29.50 in 2.0 mi West 25.3 mph 34.5 mph 0.03 in Snow Light Snow
11:53 PM 35.1 °F 23.3 °F 30.0 °F 82% 29.51 in 8.0 mi West 23.0 mph 33.4 mph 0.03 in Snow Light Snow